Location: *
(43.0833°N, 13.0500°E)
Time: 08:04:25
(UTC+00:00)

ERBS - Pass Details

Date: 15 November 2019
Orbit: 411 x 430 km, 57.0° (Epoch: 11 December)

Event Time Altitude Azimuth Distance (km) Brightness Sun altitude
Rises 16:56:03 0° 221° (SW) 2,332 7.0 -13.2°
Reaches altitude 10° 16:58:07 10° 219° (SW) 1,476 5.8 -13.6°
Maximum altitude 17:01:24 72° 134° (SE) 437 2.2 -14.1°
Enters shadow 17:02:59 28° 55° (NE) 813 3.2 -14.4°
